Location: ??????
(30.5519°N, 47.7720°E)
Time: 17:59:21
(UTC+00:00)

ARGOS - Pass Details

Date: 24 January 2021
Orbit: 821 x 834 km, 98.4° (Epoch: 01 March)

Event Time Altitude Azimuth Distance (km) Brightness Sun altitude
Rises 16:08:45 0° 170° (S) 3,336 6.3 -23.7°
Reaches altitude 10° 16:11:05 10° 171° (S) 2,407 5.6 -24.2°
Maximum altitude 16:16:25 77° 257° (WSW) 845 3.2 -25.4°
Drops below altitude 10° 16:21:47 10° 344° (NNW) 2,425 5.7 -26.5°
Sets 16:24:09 0° 346° (NNW) 3,363 6.4 -27.0°
